Flag for Colombia Weather past 2 weeks in Bogota, Colombia

Now
64 °F

Partly sunny.


Feels Like: 64 °F
Forecast: 48 / 63 °F
Wind: 7 mph from Southwest

Location: Bogota / Eldorado

Current Time: Mar 4, 2015 at 3:28:25 PM

Latest Report: Mar 4, 2015 at 3:00 PM


Visibility: N/A

Pressure: 30.21 "Hg

Humidity: 56%

Dew point: 48 °F

Location of BogotaLocation

Historic Weather in Bogota — Graph

°F

Bogota temperature yesterday

Maximum temperature yesterday: 70 °F (at 2:00 PM)
Minimum temperature yesterday: 54 °F (at 2:00 AM)
Average temperature yesterday: 60 °F

Past Weeks' High & Low Weather Summary

 TemperatureHumidityPressure
High73 °F (Feb 21, 1:00 PM)100% (Feb 18, 4:00 AM)30.41 "Hg (Feb 18, 4:00 AM)
Low41 °F (Feb 20, 7:00 AM)27% (Feb 23, 2:00 PM)30.18 "Hg (Mar 3, 4:00 PM)
Average58 °F72%30.30 "Hg
* Reported Feb 17 2:00 PM — Mar 4 2:00 PM, Bogota, Weather by CustomWeather, © 2015

Note: Actual official high and low records may vary slightly from our data, if they occured in-between our weather recording intervals... More about our weather records

Advertising

Bogota weather history for previous 24 hours

 ConditionsComfort  
Time TempWeatherWind HumidityBarometerVisibility
2:00 PM
Wed, Mar 4
66 °FPartly sunny.2 mph46%30.23 "HgN/A
1:00 PM66 °FPartly sunny.9 mph46%30.26 "HgN/A
12:00 PM66 °FPartly sunny.7 mph46%30.29 "HgN/A
11:00 AM63 °FPartly sunny.10 mph52%30.32 "HgN/A
10:00 AM63 °FBroken clouds.7 mph52%30.32 "HgN/A
9:00 AM59 °FBroken clouds.5 mph63%30.31 "HgN/A
8:00 AM55 °FBroken clouds.2 mph82%30.30 "HgN/A
7:00 AM54 °FScattered showers. Broken clouds.5 mph88%30.28 "Hg5 mi
6:00 AM54 °FPartly cloudy.3 mph88%30.26 "Hg5 mi
5:00 AM54 °FPartly cloudy.2 mph88%30.24 "Hg5 mi
4:00 AM54 °FPartly cloudy.2 mph88%30.23 "Hg5 mi
3:00 AM55 °FPartly cloudy.5 mph82%30.22 "Hg5 mi
2:00 AM55 °FPartly cloudy.5 mph82%30.23 "Hg5 mi
1:00 AM55 °FPartly cloudy.5 mph88%30.25 "Hg5 mi
12:00 AM55 °FPartly cloudy.3 mph88%30.27 "Hg5 mi
11:00 PM
Tue, Mar 3
55 °FPartly cloudy.6 mph88%30.29 "Hg5 mi
10:00 PM55 °FPartly cloudy.6 mph88%30.28 "Hg6 mi
9:00 PM57 °FPassing clouds.5 mph82%30.27 "Hg6 mi
8:00 PM57 °FPassing clouds.5 mph82%30.25 "Hg6 mi
7:00 PM57 °FPassing clouds.3 mph77%30.22 "Hg6 mi
6:00 PM63 °FScattered showers. Scattered clouds.10 mph52%30.20 "HgN/A
5:00 PM61 °FScattered showers. Scattered clouds.7 mph72%30.19 "Hg5 mi
4:00 PM63 °FScattered showers. Broken clouds.13 mph64%30.18 "Hg5 mi
3:00 PM68 °FThunderstorms. Scattered clouds.14 mph53%30.19 "Hg5 mi
Weather by CustomWeather, © 2015

See weather overviewHow to use our weather pages